CW4482 Weather Reports


time (UTC)temp
F
wind
direction
speed
knots
gust
knots
rain 1hr
in
rain 24hr
in
rain mn
in
humidity
%
barometer
mb
20260506110027 74 180 0.0 0.0 0.00 0.00 0.00 94 1008.3
20260506104527 74 180 0.0 0.0 0.00 0.00 0.00 94 1008.4
20260506103030 74 180 0.0 0.0 0.00 0.00 0.00 94 1008.2
20260506101551 74 173 0.0 0.0 0.00 0.00 0.00 94 1008.2
20260506100036 75 174 0.0 0.0 0.00 0.00 0.00 93 1008.1
20260506094513 74 178 0.0 0.0 0.00 0.00 0.00 93 1008.0
20260506093013 75 183 0.0 0.0 0.00 0.00 0.00 93 1007.9
20260506091533 75 184 0.0 5.2 0.00 0.00 0.00 93 1008.1
20260506090028 75 188 0.9 2.6 0.00 0.00 0.00 92 1008.2
20260506084530 75 193 1.7 3.5 0.00 0.00 0.00 92 1008.3
20260506083049 76 160 0.0 0.0 0.00 0.00 0.00 91 1008.3
20260506081516 76 178 0.0 0.0 0.00 0.00 0.00 91 1008.6
20260506073027 76 200 0.0 0.0 0.00 0.00 0.00 90 1008.9
20260506071527 76 186 0.0 0.0 0.00 0.00 0.00 90 1009.0
20260506061528 77 178 0.0 0.0 0.00 0.00 0.00 90 1009.2
20260506044512 77 171 0.0 0.0 0.00 0.00 0.00 89 1009.3
20260506043015 77 179 0.0 0.0 0.00 0.00 0.00 88 1009.2
20260506041517 77 184 0.0 0.0 0.00 0.00 0.00 88 1009.0
20260506040043 77 196 0.0 0.0 0.00 0.00 0.00 88 1009.1
20260506034517 77 190 0.0 0.0 0.00 0.00 0.00 88 1008.9
20260506033019 77 201 0.0 0.0 0.00 0.00 0.00 88 1008.9
20260506031522 78 191 0.0 0.0 0.00 0.00 0.00 87 1008.7
20260506030025 78 197 0.0 0.0 0.00 0.00 0.00 87 1008.6
20260506024525 78 176 0.0 0.0 0.00 0.00 0.00 87 1008.3
20260506023021 78 180 0.0 0.0 0.00 0.00 0.00 86 1008.1
20260506021525 78 178 0.0 0.0 0.00 0.00 0.00 86 1007.8
20260506020027 78 173 0.9 8.7 0.00 0.00 0.00 86 1007.7
20260506014528 78 200 3.5 13.9 0.00 0.00 0.00 85 1007.5
20260506013024 78 188 3.5 8.7 0.00 0.00 0.00 85 1007.4
20260506011526 79 189 3.5 7.8 0.00 0.00 0.00 85 1007.1
20260506010025 79 179 2.6 8.7 0.00 0.00 0.00 84 1007.0
20260506004529 79 208 3.5 5.2 0.00 0.00 0.00 83 1007.0
20260506003026 80 182 2.6 12.2 0.00 0.00 0.00 83 1006.7
20260506001524 80 164 4.3 8.7 0.00 0.00 0.00 83 1006.7
20260506000022 80 175 3.5 7.0 0.00 0.00 0.00 82 1006.6
20260505234526 80 183 2.6 9.6 0.00 0.00 0.00 82 1006.7
20260505233026 81 182 2.6 10.4 0.00 0.00 0.00 83 1006.7
20260505231522 81 182 2.6 7.0 0.00 0.00 0.00 82 1006.8
20260505230023 81 192 2.6 5.2 0.00 0.00 0.00 81 1006.6
20260505224524 82 217 2.6 9.6 0.00 0.00 0.00 81 1006.7
20260505223022 83 200 2.6 10.4 0.00 0.00 0.00 77 1006.7
20260505221516 83 185 4.3 13.9 0.00 0.00 0.00 75 1006.8
20260505220034 84 190 6.1 12.2 0.00 0.00 0.00 77 1006.8
20260505214515 84 197 3.5 9.6 0.00 0.00 0.00 78 1007.0
20260505213016 84 213 1.7 12.2 0.00 0.00 0.00 79 1007.1
20260505211517 84 185 6.1 11.3 0.00 0.00 0.00 76 1007.3
20260505210013 84 178 5.2 9.6 0.00 0.00 0.00 78 1007.5
20260505204541 85 197 5.2 10.4 0.00 0.00 0.00 75 1007.6
20260505203013 85 209 3.5 10.4 0.00 0.00 0.00 75 1007.7
20260505201535 86 153 3.5 13.0 0.00 0.00 0.00 75 1007.9
20260505200031 85 206 3.5 14.8 0.00 0.00 0.00 75 1008.1
20260505194521 84 179 5.2 18.2 0.00 0.00 0.00 76 1008.2
20260505193044 83 214 3.5 11.3 0.00 0.00 0.00 81 1008.4
20260505191528 82 173 4.3 8.7 0.00 0.00 0.00 81 1008.7
20260505190033 82 198 0.9 8.7 0.00 0.00 0.00 83 1008.8
20260505184551 81 175 0.9 11.3 0.00 0.00 0.00 84 1008.8
20260505183034 81 131 0.9 8.7 0.00 0.00 0.00 80 1008.9
20260505181521 81 186 1.7 8.7 0.00 0.00 0.00 82 1008.9
20260505180027 80 186 2.6 8.7 0.00 0.00 0.00 84 1009.0
20260505174515 80 185 3.5 7.8 0.00 0.00 0.00 84 1009.2
20260505173037 80 186 2.6 7.8 0.00 0.00 0.00 84 1009.4
20260505171513 80 178 3.5 8.7 0.00 0.00 0.00 82 1009.4
20260505170020 79 196 1.7 9.6 0.00 0.00 0.00 83 1009.5
20260505164517 78 182 2.6 10.4 0.00 0.00 0.00 84 1009.5
20260505163012 77 192 2.6 7.0 0.00 0.00 0.00 88 1009.4
20260505161520 77 200 0.9 3.5 0.00 0.00 0.00 88 1009.5
20260505153012 77 209 3.5 7.8 0.00 0.00 0.00 87 1009.2
20260505151538 77 192 3.5 8.7 0.00 0.00 0.00 86 1009.4
20260505124520 73 178 1.7 6.1 0.00 0.00 0.00 89 1008.7
20260505123029 73 184 2.6 7.0 0.00 0.00 0.00 89 1008.8
20260505121528 73 208 2.6 7.8 0.00 0.00 0.00 89 1008.3
20260505120013 73 198 2.6 7.0 0.00 0.00 0.00 88 1008.3
20260505114535 73 193 2.6 7.8 0.00 0.00 0.00 88 1008.7
20260505113018 73 222 2.6 8.7 0.00 0.00 0.00 88 1008.3
20260505111536 73 205 3.5 7.8 0.00 0.00 0.00 88 1008.1